Theta_e
325 323 328 334 332 330 329 330 331 326 328 326 324 326 325 325 326 327 329 327 328 329 328 329 330 333 334 334 333 331 331 334 336 336 335 336 336 338 339 339 341 343 344
324 324 328 333 331 326 326 327 327 327 325 328 326 325 325 324 326 327 327 328 327 326 325 326 328 330 332 330 332 329 329 329 331 331 331 331 332 334 336 337 338 339 339
323 327 328 330 330 326 326 325 325 329 329 326 325 326 323 324 325 326 327 326 326 325 322 324 328 328 328 327 327 327 326 327 328 328 329 330 330 330 331 333 334 335 335
324 326 327 329 330 327 332 327 325 326 325 324 323 325 325 324 324 325 325 324 324 323 322 322 326 326 325 327 328 325 326 325 324 325 326 327 328 328 328 329 330 330 330
325 325 329 332 328 327 328 327 326 325 324 325 324 324 323 324 323 322 323 322 322 322 321 321 323 323 324 325 326 325 325 324 322 323 323 327 326 326 327 326 326 327 327
324 327 331 328 327 327 326 325 325 326 324 324 323 322 323 322 322 322 321 322 321 321 321 320 320 321 322 321 323 324 323 321 322 323 324 325 326 326 326 325 326 326 326
325 328 329 328 328 326 326 325 325 324 324 323 323 323 323 321 321 319 319 319 318 318 319 319 319 319 319 319 319 321 320 321 322 323 323 324 325 325 326 325 325 325 325
324 327 327 328 327 326 326 326 325 324 324 323 322 321 319 318 317 317 317 316 317 317 317 317 316 317 318 316 316 316 313 313 318 321 322 323 324 324 324 324 324 324 323
324 326 327 327 326 327 327 325 325 324 323 322 321 321 318 316 315 315 315 316 316 315 316 316 314 313 313 312 312 313 308 312 309 317 320 320 322 322 323 322 322 322 322
324 327 326 327 326 326 325 325 325 324 323 321 320 320 317 315 315 314 314 314 313 313 313 314 312 304 303 305 306 307 306 306 307 306 315 318 320 321 321 321 322 322 321
323 326 324 327 327 326 324 324 325 323 323 320 319 318 316 313 311 314 310 312 313 313 311 306 304 306 306 304 306 306 306 306 306 306 306 315 318 318 318 319 320 320 320
323 326 325 325 324 325 324 324 325 323 322 320 318 315 314 309 307 308 309 314 311 310 305 306 307 307 307 306 306 306 306 306 306 306 306 308 315 317 317 316 317 318 319
323 324 325 325 324 322 324 323 323 323 321 319 316 311 307 309 310 309 308 308 306 306 307 308 308 307 307 306 307 307 306 306 306 306 306 307 310 315 318 317 317 317 318
323 324 324 324 322 323 322 323 322 322 321 320 315 309 309 311 312 311 308 306 307 307 308 308 308 307 307 307 307 307 307 307 307 307 307 308 309 312 315 317 318 318 318
323 324 324 323 323 321 323 322 322 321 320 319 317 310 312 313 312 310 308 308 307 307 307 308 308 308 308 308 308 308 308 308 308 308 308 308 309 309 313 316 317 318 319
323 323 323 323 324 323 322 321 319 319 318 316 313 312 314 314 313 310 309 309 308 307 307 307 308 308 308 308 308 309 309 309 309 309 309 309 309 309 310 316 317 317 318
320 322 323 323 325 323 322 320 320 320 320 317 315 315 316 315 314 312 311 309 309 308 307 307 308 308 308 308 309 310 310 311 310 310 309 309 309 309 307 315 316 317 317
318 319 321 322 324 323 323 322 321 321 321 318 317 316 316 315 314 313 311 310 310 309 308 308 308 308 309 310 311 311 311 311 311 310 310 310 309 309 306 308 315 316 316
318 317 319 321 322 322 323 323 322 321 321 318 317 316 315 314 313 312 310 310 311 310 309 309 309 308 309 310 311 311 312 311 311 311 311 310 309 308 307 305 307 312 314
319 318 317 317 319 320 322 322 322 321 321 318 317 316 315 314 313 312 309 310 311 310 310 309 309 309 309 310 310 310 311 311 311 311 311 309 308 307 308 308 308 307 307
318 318 317 317 317 317 320 321 321 321 319 318 317 316 315 315 314 313 311 310 311 310 310 310 310 309 309 310 310 311 312 312 311 309 309 309 308 307 308 309 309 309 309
318 318 317 317 317 317 318 320 320 319 318 318 317 316 316 315 315 314 314 312 311 311 311 310 310 310 310 310 311 311 308 309 310 309 309 309 309 308 307 309 310 309 309
316 317 317 318 318 318 317 318 318 318 317 317 317 316 316 316 315 315 315 314 313 312 312 311 311 310 310 311 311 312 309 309 307 308 309 309 308 309 307 309 310 310 310
314 315 316 317 317 318 318 318 318 318 317 318 317 317 317 317 316 316 315 315 315 313 313 312 311 311 310 310 311 311 311 311 308 309 310 309 308 309 309 308 310 310 310
310 313 316 317 317 318 318 318 318 318 318 318 317 317 317 317 316 316 316 315 316 315 314 314 312 311 311 310 311 311 311 310 310 308 308 310 310 309 310 309 308 309 310
311 312 314 316 317 317 318 318 319 319 318 318 317 317 317 316 316 316 317 316 316 316 315 315 314 312 311 311 310 311 311 311 309 307 304 307 308 313 312 310 309 309 309
Wind_Speed
21 21 18 14 13 12 11 9 9 9 12 11 10 12 11 12 12 12 15 14 14 15 15 14 14 15 16 17 18 19 18 19 20 19 21 21 21 20 23 23 28 26 25
26 24 19 15 14 10 12 11 10 9 9 9 10 10 12 11 11 12 14 13 15 15 15 14 15 16 17 17 17 17 18 19 18 21 20 21 19 19 19 18 20 22 22
28 26 21 17 14 11 12 11 10 7 12 11 9 10 10 11 12 11 13 13 14 14 15 14 15 15 16 16 16 15 16 16 18 20 23 22 21 18 17 17 16 17 18
28 25 21 19 15 13 12 14 13 11 9 9 9 9 10 11 11 11 11 12 12 13 14 14 13 16 15 15 16 17 16 18 19 19 20 21 19 19 17 16 16 16 16
28 24 20 19 16 15 14 12 11 11 10 10 10 9 9 10 11 10 10 11 12 12 13 13 13 13 14 15 15 15 14 15 18 19 22 20 18 17 19 18 17 16 16
29 26 19 18 17 15 13 13 12 11 11 10 9 8 8 8 9 9 9 9 10 11 11 12 12 11 12 13 14 15 14 15 16 18 19 17 19 17 17 18 17 17 16
29 26 20 17 17 16 15 14 13 11 10 10 9 9 8 8 8 8 8 8 8 8 9 9 10 9 10 11 13 12 14 13 16 18 18 17 15 14 16 15 15 15 15
30 26 20 18 17 16 15 14 12 12 10 9 8 7 7 7 6 7 6 7 6 7 7 7 9 7 8 10 11 11 11 12 12 12 15 15 13 14 13 14 13 14 14
29 26 21 20 18 17 15 14 13 12 10 9 8 8 8 7 6 6 6 6 6 5 6 6 6 5 7 8 9 9 8 9 10 11 12 12 10 11 12 12 11 12 11
28 25 24 21 18 19 16 15 14 12 10 10 9 8 7 6 6 6 5 5 4 3 4 3 4 6 7 9 8 7 6 5 6 9 10 10 9 9 9 10 9 9 10
28 27 24 24 22 20 19 16 15 12 12 10 9 9 8 8 8 7 6 4 3 3 3 4 6 6 6 7 7 6 4 3 5 5 7 7 7 7 8 8 8 8 8
30 30 28 27 25 22 21 18 17 15 15 13 13 12 11 8 7 5 4 2 2 2 4 4 4 4 3 4 5 4 3 3 3 4 4 5 6 6 6 7 7 6 6
34 32 31 29 26 25 23 21 19 19 17 15 14 13 11 10 8 6 5 4 4 5 4 4 4 3 3 3 3 3 2 2 2 2 3 3 4 6 6 6 5 5 5
35 34 32 30 27 26 24 23 22 21 19 17 14 13 12 12 10 8 6 5 3 3 4 4 3 2 3 2 2 2 2 2 2 2 3 4 3 5 6 6 5 5 4
35 35 34 30 28 27 27 26 24 22 21 18 16 15 14 13 10 9 6 5 5 5 5 4 3 3 3 3 2 3 3 4 4 4 4 4 4 4 7 6 6 6 5
38 38 35 33 30 28 28 27 26 24 21 19 18 17 16 14 11 11 9 9 8 8 6 5 4 3 4 5 4 4 4 5 5 6 5 5 6 5 7 7 8 7 7
38 38 38 35 33 31 30 27 25 24 22 19 19 17 18 16 15 13 12 11 10 8 8 6 6 6 6 6 5 6 7 8 9 8 8 7 7 7 8 9 9 9 8
33 38 38 36 36 34 32 30 27 24 23 20 19 18 18 18 17 16 16 14 11 10 9 8 8 7 7 6 6 7 8 7 8 8 8 8 9 9 9 10 10 10 9
36 36 37 38 37 36 35 32 30 26 26 21 19 19 18 17 17 17 18 15 12 13 11 11 9 8 7 7 7 8 9 9 9 10 10 9 9 10 10 10 10 10 9
35 37 37 38 38 35 35 33 31 29 28 23 21 21 20 19 18 17 18 16 15 15 14 13 11 10 9 8 9 11 12 11 11 11 11 10 10 11 11 10 10 11 10
30 34 36 37 38 35 35 33 31 31 29 26 25 23 23 21 20 19 18 18 17 17 15 14 12 11 11 10 8 8 10 11 11 10 12 10 11 12 12 11 10 11 11
36 36 35 37 38 38 37 35 33 33 30 28 25 24 24 23 22 21 21 21 20 19 18 17 16 13 11 8 3 2 3 4 12 14 15 15 12 13 15 14 12 12 12
27 35 37 38 39 39 37 34 30 26 26 26 28 28 27 25 24 24 23 23 23 23 22 20 19 18 15 8 12 4 0 3 4 6 16 18 16 16 18 17 15 14 13
20 26 30 33 36 36 37 36 35 30 28 32 32 30 28 27 26 26 26 26 26 26 25 24 22 21 19 18 10 16 16 3 0 4 5 15 19 19 20 22 19 17 15
2 18 23 27 30 32 35 37 35 33 32 29 25 28 28 28 27 27 27 27 28 29 28 26 26 25 24 23 20 12 12 17 12 4 3 3 12 23 23 24 25 21 19
30 11 8 17 21 25 28 33 35 35 34 29 27 26 26 26 27 28 29 30 30 31 32 30 28 28 27 27 25 23 21 7 9 9 4 7 7 10 21 26 28 28 25
Wind_Direction
178 161 167 157 143 133 135 122 111 125 96 99 101 91 91 91 89 79 73 79 79 76 73 70 67 69 74 75 75 74 76 74 76 78 76 77 74 74 74 78 84 79 74
163 160 166 157 146 145 150 147 123 120 124 118 105 96 97 97 93 81 80 71 75 74 79 81 90 91 77 77 80 81 76 77 80 86 89 80 76 76 81 91 79 77 74
162 161 168 171 157 153 157 150 153 129 130 106 110 99 98 93 94 88 82 82 79 80 84 90 86 83 77 77 86 85 83 80 82 86 93 84 79 78 82 82 87 79 76
161 164 168 175 170 160 142 146 144 147 131 123 120 117 100 100 98 90 86 89 83 87 84 93 87 86 84 71 90 89 88 86 84 92 91 88 85 79 83 88 84 81 80
162 163 170 160 165 166 161 147 148 144 142 132 122 118 116 104 98 99 91 92 88 84 87 92 93 93 87 69 95 91 87 87 99 94 88 89 92 86 83 86 87 84 79
163 165 159 162 165 165 165 166 157 149 145 140 136 125 120 120 110 103 100 98 93 89 88 91 94 94 90 79 83 91 90 103 103 96 93 92 89 90 90 86 86 86 84
166 165 165 168 169 171 165 165 162 160 153 146 138 137 125 118 116 115 111 106 100 98 93 96 99 97 95 89 86 90 93 113 109 102 96 95 95 92 89 89 87 88 85
169 169 169 175 174 173 172 172 168 168 165 160 149 143 141 136 129 121 119 112 109 105 97 92 94 100 102 95 91 88 100 104 116 115 112 98 97 97 97 94 91 87 87
174 174 177 178 181 179 179 176 178 176 172 167 166 161 153 145 135 137 131 126 121 110 97 87 92 101 101 106 101 98 108 115 105 112 112 105 103 101 99 98 95 93 91
178 182 182 183 182 183 185 187 183 181 184 186 182 175 173 166 158 146 146 141 133 124 104 102 102 107 115 122 126 116 122 120 129 118 121 109 112 110 108 104 103 98 96
185 189 189 190 188 190 190 189 190 196 193 193 194 194 197 199 175 169 163 151 158 155 128 122 124 115 111 132 136 126 142 145 143 126 117 127 125 124 118 117 113 107 103
191 194 194 197 196 194 194 199 201 200 201 203 207 202 209 199 186 179 180 189 194 159 140 133 138 147 143 139 146 148 155 169 144 148 124 124 155 150 137 131 125 120 112
196 197 199 201 203 202 202 202 202 204 212 218 218 214 206 206 204 209 215 193 201 191 179 172 179 173 156 151 154 165 169 187 198 172 167 145 165 173 170 161 146 136 126
198 202 203 205 208 206 207 208 210 214 221 226 224 218 212 213 221 231 228 212 207 208 206 211 212 201 179 183 206 217 222 231 236 222 205 188 187 190 185 178 177 179 175
202 207 208 208 210 210 211 215 216 219 225 229 229 222 218 222 234 228 227 234 233 239 229 225 223 215 219 241 255 238 246 256 256 244 234 216 210 209 199 189 194 195 198
208 210 210 211 213 212 214 217 219 222 227 231 231 223 225 231 238 233 246 248 245 242 233 228 234 238 242 254 245 259 254 252 253 244 237 232 222 220 208 202 204 205 207
211 213 212 212 213 215 217 220 220 223 226 231 230 227 231 236 239 240 250 247 244 243 235 234 239 244 250 253 256 255 259 263 255 255 249 242 234 222 210 210 208 209 210
215 215 216 215 216 216 218 221 223 224 228 234 233 235 237 239 239 246 249 245 247 247 243 239 242 250 254 257 260 261 266 265 253 249 245 240 236 223 212 204 207 211 208
220 216 217 216 218 218 219 222 225 227 229 235 238 239 240 242 243 249 246 246 248 248 247 241 249 251 261 265 268 268 268 266 253 242 243 237 237 222 212 202 201 205 204
221 219 220 219 219 220 221 222 225 228 228 234 239 241 241 245 245 253 245 244 249 248 244 241 250 254 260 271 275 272 269 264 247 246 238 230 227 219 212 209 205 199 195
224 223 218 216 219 217 215 217 219 220 225 232 235 240 241 245 244 248 249 244 247 246 249 249 254 253 257 262 284 286 268 250 246 239 225 224 227 223 216 213 209 205 203
219 222 219 219 219 218 219 216 214 218 226 233 239 242 242 243 245 247 249 247 247 249 250 248 247 248 249 247 240 284 333 273 243 237 231 230 234 231 224 221 220 218 214
216 219 219 220 221 219 217 217 218 225 231 233 235 237 237 240 243 246 251 251 251 251 253 252 248 245 248 248 233 224 49 256 321 234 232 233 233 233 230 227 229 229 225
236 223 224 223 221 221 218 219 220 219 221 234 237 240 241 244 248 250 252 252 253 254 255 255 253 250 249 248 248 240 244 261 19 335 248 233 232 237 235 232 234 231 230
346 230 224 223 224 222 220 223 224 227 237 243 246 244 245 248 251 251 253 253 254 254 255 257 255 251 249 249 242 243 242 241 241 208 287 312 247 241 239 236 233 235 234
43 42 228 226 226 228 229 227 228 232 237 240 246 246 250 252 253 253 253 253 254 255 254 256 257 255 254 253 250 245 240 217 214 208 230 264 259 272 246 239 235 234 235